This is the latest recevied weather packets stored in our database for station/object W5LND-10. If no packets are shown the sender has not sent any weather packets the latest 1 day(s).
| Time | Temp. | Humidity | Pressure | Rain* | Wind** | Luminosity | Snow |
|---|---|---|---|---|---|---|---|
| 1778025669 | 28.33° C | 24% | 1002.1 hPa | 0 mm | 3.58 m/s, 248° | 109 W/m² | - |
| 1778025369 | 28.89° C | 24% | 1002 hPa | 0 mm | 3.13 m/s, 290° | 93 W/m² | - |
| 1778025069 | 28.89° C | 24% | 1001.9 hPa | 0 mm | 3.13 m/s, 295° | 83 W/m² | - |
| 1778024769 | 28.89° C | 23% | 1001.9 hPa | 0 mm | 3.58 m/s, 301° | 104 W/m² | - |
| 1778024469 | 28.89° C | 22% | 1001.8 hPa | 0 mm | 3.58 m/s, 299° | 118 W/m² | - |
| 1778024169 | 28.89° C | 24% | 1001.6 hPa | 0 mm | 2.68 m/s, 326° | 104 W/m² | - |
| 1778023869 | 28.89° C | 24% | 1001.5 hPa | 0 mm | 3.13 m/s, 277° | 137 W/m² | - |
| 1778023569 | 29.44° C | 23% | 1001.4 hPa | 0 mm | 2.68 m/s, 275° | 155 W/m² | - |
| 1778023269 | 29.44° C | 24% | 1001.4 hPa | 0 mm | 2.24 m/s, 287° | 162 W/m² | - |
| 1778022969 | 29.44° C | 24% | 1001.3 hPa | 0 mm | 2.24 m/s, 340° | 206 W/m² | - |
| 1778022669 | 29.44° C | 24% | 1001.5 hPa | 0 mm | 1.79 m/s, 313° | 223 W/m² | - |
| 1778022369 | 28.89° C | 25% | 1001.4 hPa | 0 mm | 1.79 m/s, 304° | 297 W/m² | - |
| 1778022069 | 28.89° C | 24% | 1001.4 hPa | 0 mm | 2.24 m/s, 23° | 290 W/m² | - |
| 1778021769 | 28.89° C | 24% | 1001.6 hPa | 0 mm | 2.24 m/s, 26° | 218 W/m² | - |
| 1778021469 | 28.89° C | 24% | 1001.7 hPa | 0 mm | 2.24 m/s, 26° | 221 W/m² | - |
| 1778021169 | 28.89° C | 24% | 1001.7 hPa | 0 mm | 2.68 m/s, 298° | 257 W/m² | - |
| 1778020869 | 28.89° C | 24% | 1001.7 hPa | 0 mm | 2.24 m/s, 322° | 281 W/m² | - |
| 1778020569 | 28.89° C | 24% | 1001.6 hPa | 0 mm | 2.24 m/s, 333° | 269 W/m² | - |
| 1778020269 | 28.89° C | 24% | 1001.6 hPa | 0 mm | 3.13 m/s, 329° | 236 W/m² | - |
| 1778019969 | 28.89° C | 23% | 1001.7 hPa | 0 mm | 3.13 m/s, 310° | 272 W/m² | - |
| 1778019669 | 28.89° C | 23% | 1001.8 hPa | 0 mm | 3.58 m/s, 317° | 258 W/m² | - |
| 1778019369 | 28.89° C | 23% | 1001.8 hPa | 0 mm | 4.02 m/s, 335° | 306 W/m² | - |
| 1778019069 | 28.89° C | 23% | 1001.9 hPa | 0 mm | 3.58 m/s, 328° | 327 W/m² | - |
| 1778018769 | 28.89° C | 23% | 1001.9 hPa | 0 mm | 2.68 m/s, 5° | 294 W/m² | - |
| 1778018469 | 28.33° C | 23% | 1001.7 hPa | 0 mm | 3.13 m/s, 325° | 225 W/m² | - |
* Rain latest hour (hover to see other rain measurements)
** Current wind speed in m/s (hover to see current wind gust speed)